Location: Watson Lake
(60.1170°N, 128.8000°W)
Time: 14:30:20
(UTC-07:00)

Daily predictions for brighter satellites

Satellite Brightness Start Highest point End
(mag) Time Altitude Azimuth Time Altitude Azimuth Time Altitude Azimuth
Cosmos 1953 2.7 23:46:32 10° N 23:50:31 58° ENE 23:54:26 10° SSE
Intercosmos 25 3.7 23:47:26 10° SSE 23:50:53 40° E 23:53:55 10° NNE
Cosmos 1892 Rocket 3.8 23:46:59 10° S 23:51:14 56° E 23:55:31 10° NNE
SPOT 5 4.4 23:47:29 10° SSW 23:51:26 28° W 23:55:35 10° NNW
Cosmos 540 Rocket 3.8 23:46:29 10° SW 23:51:41 75° NW 23:56:55 10° NNE
